Location: Isola Pescaroli
(45.0500°N, 10.1667°E)
Time: 15:32:49
(UTC+00:00)

Cosmos 2341 Rocket - Pass Details

Date: 03 March 2021
Orbit: 968 x 1004 km, 82.9° (Epoch: 23 April)

Event Time Altitude Azimuth Distance (km) Brightness Sun altitude
Rises 18:28:23 0° 177° (S) 3,699 6.9 -14.7°
Reaches altitude 10° 18:30:55 10° 175° (S) 2,749 6.2 -15.1°
Maximum altitude 18:37:09 67° 94° (E) 1,067 3.9 -16.2°
Drops below altitude 10° 18:43:23 10° 13° (NNE) 2,742 6.3 -17.3°
Sets 18:45:54 0° 11° (N) 3,689 7.0 -17.8°
